NINGXIA-1 1 (44779 NORAD) Tracking and Keplerian Element Data

This shows tracking and keplerian element data for the satellite.

Feedback or suggestion? Click here.




ElementValue
Catalog44779
NameNINGXIA-1 1
Epoch Orbit923
Epoch Day18.10147878
Epoch Year2020
RAAN201.9381
Inclination45.0065
Eccentricity0.0010366
Argument of Perigee241.4326
Mean Anonmoly118.5452
Mean Motion14.01668796
Decay Rate-1.3E-06
L11 44779U 19076A 20018.10147878 -.00000130 00000-0 00000+0 0 9995
L22 44779 45.0065 201.9381 0010366 241.4326 118.5452 14.01668796 9233

Live tracking and technical data element details for NINGXIA-1 1 (NORAD 44779). NINGXIA-1 1 can be tracked NOW for your location showing map with azimuth and elevation plus other details from your city location.

Track the satellite on the map from your city or location and see movement details for azimuth, elevation, latitude, longitude, range, height, and movement on the map or in text.







IsCatalogInMostPopularTable: catalog: 44779, numindb: 10
Update: records affected: 1



GetName: 44779 NINGXIA-1 1

Hit Count: updated at: Sat, 18 Jan 2020 18:05:53 GMT